User: anonymous   Login
Location: Ash Swamp
(41.5170°N, 74.6157°W)
Time: 10:49:04
(UTC+00:00)
Language:

Cosmos 2360 - Orbit

View from above orbital plane
View from above orbital plane
View from above satellite
View from above satellite

Ground track
Ground track

The orbit data is extracted from the following two-line orbital elements,

1 25406U 98045A   20270.73649503  .00000035  00000-0  45581-4 0  9996
2 25406  70.8138  12.0193 0009199 218.9593 141.0865 14.12347755143212
Epoch (UTC): 26 September 2020 17:40:33
Eccentricity: 0.0009199
inclination: 70.8138°
perigee height: 845 km
apogee height: 858 km
right ascension of ascending node: 12.0193°
argument of perigee: 218.9593°
revolutions per day: 14.12347755
mean anomaly at epoch: 141.0865°
orbit number at epoch: 14321

The dashed part of the orbit path shows where the satellite is in the earth's shadow,  

DLR